Location: Breckenridge
(39.4820°N, 106.0380°W)
Time: 08:16:15
(UTC-06:00)

ISS - Pass Details

Date: 24 March 2019
Orbit: 408 x 410 km, 51.6° (Epoch: 25 April)

Event Time Altitude Azimuth Distance (km) Brightness Sun altitude
Rises 20:08:41 0° 249° (WSW) 2,318 1.1 -10.1°
Reaches altitude 10° 20:10:51 10° 258° (WSW) 1,460 0.2 -10.5°
Maximum altitude 20:13:56 38° 328° (NNW) 636 -2.4 -11.1°
Drops below altitude 10° 20:17:02 10° 39° (NE) 1,465 -1.3 -11.7°
Enters shadow 20:18:01 - 44° (NE) 1,851 -0.8 -11.9°
